Flag for Australia Weather past 2 weeks in Sydney, New South Wales, Australia

Now
63 °F

Broken clouds.


Feels Like: 63 °F
Forecast: 58 / 71 °F
Wind: 10 mph from East

Location: Sydney Airport

Current Time: Oct 21, 2014 at 6:51:45 PM

Latest Report: Oct 21, 2014 at 6:00 PM


Visibility: N/A

Pressure: 30.42 "Hg

Humidity: 52%

Dew point: 45 °F

Location of SydneyLocation

Historic Weather in Sydney — Graph

°F

Sydney temperature yesterday

Maximum temperature yesterday: 66 °F (at 12:30 AM)
Minimum temperature yesterday: 61 °F (at 4:30 AM)
Average temperature yesterday: 63 °F

Past Weeks' High & Low Weather Summary

 TemperatureHumidityPressure
High82 °F (Oct 11, 11:30 AM)100% (Oct 14, 8:50 PM)30.51 "Hg (Oct 14, 8:50 PM)
Low50 °F (Oct 14, 10:00 PM)23% (Oct 7, 4:30 AM)29.59 "Hg (Oct 7, 4:00 AM)
Average65 °F63%30.05 "Hg
* Reported Oct 6 5:00 PM — Oct 21 5:30 PM, Sydney, Weather by CustomWeather, © 2014

Note: Actual official high and low records may vary slightly from our data, if they occured in-between our weather recording intervals... More about our weather records

Advertising

Sydney weather history for previous 24 hours

 ConditionsComfort  
Time TempWeatherWind HumidityBarometerVisibility
5:30 PM
Oct 21
63 °FBroken clouds.10 mph52%30.42 "HgN/A
5:00 PM63 °FBroken clouds.12 mph49%30.42 "HgN/A
4:30 PM63 °FBroken clouds.12 mph52%30.42 "HgN/A
4:00 PM64 °FPartly sunny.10 mph46%30.42 "HgN/A
3:30 PM64 °FBroken clouds.13 mph49%30.42 "HgN/A
3:00 PM64 °FBroken clouds.12 mph49%30.42 "HgN/A
2:30 PM64 °FBroken clouds.10 mph46%30.45 "HgN/A
2:00 PM64 °FBroken clouds.12 mph46%30.45 "HgN/A
1:30 PM64 °FPartly sunny.10 mph46%30.45 "HgN/A
1:00 PM64 °FPartly sunny.14 mph46%30.48 "HgN/A
12:30 PM63 °FPartly sunny.14 mph49%30.48 "HgN/A
12:00 PM63 °FPartly sunny.13 mph45%30.48 "HgN/A
11:30 AM64 °FPartly sunny.10 mph43%30.48 "HgN/A
11:00 AM64 °FPartly sunny.10 mph43%30.51 "HgN/A
10:30 AM64 °FScattered showers. Partly sunny.13 mph46%30.48 "HgN/A
10:00 AM63 °FPartly sunny.13 mph49%30.51 "HgN/A
9:30 AM63 °FPartly sunny.10 mph49%30.48 "HgN/A
9:00 AM63 °FPartly sunny.12 mph49%30.48 "HgN/A
8:30 AM63 °FPartly sunny.12 mph49%30.48 "HgN/A
8:00 AM63 °FPartly sunny.10 mph49%30.48 "HgN/A
7:30 AM63 °FPartly sunny.13 mph49%30.45 "HgN/A
7:00 AM61 °FScattered showers. Partly sunny.9 mph52%30.45 "HgN/A
6:30 AM61 °FBroken clouds.12 mph55%30.45 "HgN/A
6:00 AM61 °FPartly cloudy.15 mph55%30.45 "HgN/A
5:30 AM61 °FScattered showers. Passing clouds.15 mph63%30.42 "HgN/A
5:00 AM61 °FScattered showers. Partly cloudy.9 mph59%30.42 "HgN/A
4:30 AM61 °FPassing clouds.10 mph59%30.42 "HgN/A
4:00 AM61 °FScattered showers. Partly cloudy.9 mph59%30.42 "HgN/A
3:30 AM59 °FPassing clouds.9 mph68%30.45 "HgN/A
3:00 AM61 °FScattered showers. Passing clouds.9 mph59%30.45 "HgN/A
2:00 AM61 °FPassing clouds.13 mph63%30.45 "HgN/A
1:30 AM63 °FSprinkles. Passing clouds.14 mph59%30.45 "HgN/A
1:00 AM61 °FSprinkles. Passing clouds.13 mph68%30.45 "HgN/A
12:30 AM61 °FScattered showers. Passing clouds.5 mph72%30.45 "HgN/A
12:00 AM59 °FSprinkles. Partly cloudy.6 mph77%30.45 "HgN/A
11:30 PM
Oct 20
61 °FSprinkles. Partly cloudy.12 mph72%30.48 "HgN/A
11:00 PM63 °FSprinkles. Partly cloudy.16 mph68%30.45 "HgN/A
10:30 PM63 °FPartly cloudy.13 mph64%30.45 "HgN/A
10:00 PM63 °FScattered showers. Overcast.14 mph59%30.45 "HgN/A
9:30 PM63 °FPartly cloudy.15 mph64%30.45 "HgN/A
9:00 PM63 °FSprinkles. Passing clouds.13 mph59%30.45 "HgN/A
8:30 PM63 °FScattered showers. Partly cloudy.13 mph68%30.45 "HgN/A
8:00 PM63 °FSprinkles. Mostly cloudy.16 mph64%30.42 "HgN/A
7:30 PM63 °FSprinkles. Partly cloudy.14 mph68%30.42 "HgN/A
7:00 PM63 °FScattered showers. Overcast.15 mph59%30.42 "HgN/A
6:30 PM63 °FBroken clouds.18 mph59%30.42 "HgN/A
6:00 PM63 °FMore clouds than sun.18 mph64%30.39 "HgN/A
Weather by CustomWeather, © 2014

See weather overviewHow to use our weather pages